This is the latest recevied weather packets stored in our database for station/object WW3TRG. If no packets are shown the sender has not sent any weather packets the latest 10 day(s).
| Time | Temp. | Humidity | Pressure | Rain* | Wind** | Luminosity | Snow |
|---|---|---|---|---|---|---|---|
| 1778271762 | 15.56° C | 58% | 1010.3 hPa | 0 mm | - | 135 W/m² | - |
| 1778271459 | 15.56° C | 56% | 1010.6 hPa | 0 mm | - | 138 W/m² | - |
| 1778271155 | 16.11° C | 56% | 1010.4 hPa | 0 mm | - | 124 W/m² | - |
| 1778270852 | 16.11° C | 56% | 1010.5 hPa | 0 mm | - | 223 W/m² | - |
| 1778270548 | 16.67° C | 55% | 1010.6 hPa | 0 mm | - | 328 W/m² | - |
| 1778270245 | 16.11° C | 53% | 1010.7 hPa | 0 mm | - | 349 W/m² | - |
| 1778269941 | 16.11° C | 53% | 1010.7 hPa | 0 mm | - | 161 W/m² | - |
| 1778269638 | 16.67° C | 55% | 1010.8 hPa | 0 mm | - | 186 W/m² | - |
| 1778269335 | 16.11° C | 57% | 1010.7 hPa | 0 mm | - | 119 W/m² | - |
| 1778269032 | 16.67° C | 59% | 1010.8 hPa | 0 mm | - | 327 W/m² | - |
| 1778268729 | 16.11° C | 59% | 1011.1 hPa | 0 mm | - | 433 W/m² | - |
| 1778268425 | 15° C | 59% | 1011 hPa | 0 mm | - | 506 W/m² | - |
| 1778268123 | 14.44° C | 65% | 1011.3 hPa | 0 mm | - | 218 W/m² | - |
| 1778267820 | 14.44° C | 62% | 1011.5 hPa | 0 mm | - | 89 W/m² | - |
| 1778267516 | 15° C | 59% | 1011.3 hPa | 0 mm | - | 64 W/m² | - |
| 1778267214 | 15° C | 61% | 1011.5 hPa | 0 mm | - | 132 W/m² | - |
| 1778266910 | 15.56° C | 58% | 1011.1 hPa | 0 mm | - | 171 W/m² | - |
| 1778266607 | 16.11° C | 61% | 1011.2 hPa | 0 mm | - | 565 W/m² | - |
| 1778266304 | 15.56° C | 65% | 1011.1 hPa | 0 mm | - | 450 W/m² | - |
| 1778266001 | 14.44° C | 67% | 1011.2 hPa | 0 mm | - | 426 W/m² | - |
| 1778265698 | 13.89° C | 67% | 1011.3 hPa | 0 mm | - | 278 W/m² | - |
| 1778265395 | 13.89° C | 65% | 1011.3 hPa | 0 mm | - | 289 W/m² | - |
| 1778265091 | 14.44° C | 73% | 1011.3 hPa | 0 mm | - | 149 W/m² | - |
| 1778264787 | 13.89° C | 67% | 1011.1 hPa | 0 mm | - | 78 W/m² | - |
| 1778264484 | 13.89° C | 74% | 1011.2 hPa | 0 mm | - | 135 W/m² | - |
* Rain latest hour (hover to see other rain measurements)
** Current wind speed in m/s (hover to see current wind gust speed)